Find Starlink 38358

NORAD ID: 100560 Int'l Des: 2026-200 Owner: SPXS Country: US Constellation: starlink operational

Current View

Loading 3D Globe...

About Starlink 38358

Starlink 38358 (NORAD 100560) is a starlink constellation satellite launched Sep 2, 2026 by SPXS of US. with a mass of 575.00 kg.

Upcoming Passes

Passes for default location (London). Set your location on the main map for personalized predictions.

Altitude History

Loading altitude history...

Two-Line Element Set

1 A0560U 26200AC 26255.89543680 .00339486 00000-0 15795-2 0 9996
2 A0560 69.9986 157.0368 0004956 270.7465 89.3169 15.82297165 1682
Epoch: Sep 12, 2026 • Age: 7 hours

Current Status

Altitude 339.5 km
Apogee / Perigee N/A
Velocity 7.71 km/s
Sub-Earth Point -50.02°S, 65.69°E
Launch Date Sep 2, 2026
Age 11 days
Type internet

Technical Details

Classification Payload
Mass 575.00 kg
Dry Mass 530.00 kg
Total Mass 575.00 kg
Length 0.30 m
Diameter 4.10 m
Span 29.00 m
Shape Box + pan
Manufacturer SPXS
Bus Type Starlink V2MO
Phase Status In Orbit
Owner/State SPXS/US

Most Searched